| time (UTC) | temp F | wind direction | speed knots | gust knots | rain 1hr in | rain 24hr in | rain mn in | humidity % | barometer mb |
| 20260901190042 | 84 | 297 | 0.0 | 1.7 | 0.00 | 0.00 | 0.00 | 26 | 1012.8 |
| 20260901184605 | 85 | 278 | 0.0 | 3.5 | 0.00 | 0.00 | 0.00 | 24 | 1012.6 |
| 20260901183042 | 87 | 281 | 0.9 | 3.5 | 0.00 | 0.00 | 0.00 | 24 | 1012.4 |
| 20260901181551 | 88 | 281 | 1.7 | 4.3 | 0.00 | 0.00 | 0.00 | 25 | 1012.4 |
| 20260901180037 | 87 | 263 | 0.0 | 2.6 | 0.00 | 0.00 | 0.00 | 25 | 1012.3 |
| 20260901174551 | 88 | 281 | 0.9 | 6.1 | 0.00 | 0.00 | 0.00 | 24 | 1012.1 |
| 20260901173036 | 90 | 275 | 0.0 | 7.0 | 0.00 | 0.00 | 0.00 | 23 | 1012.2 |
| 20260901171540 | 91 | 238 | 2.6 | 7.8 | 0.00 | 0.00 | 0.00 | 22 | 1012.1 |
| 20260901170034 | 91 | 280 | 1.7 | 7.8 | 0.00 | 0.00 | 0.00 | 23 | 1012.0 |
| 20260901164539 | 89 | 305 | 2.6 | 7.0 | 0.00 | 0.00 | 0.00 | 23 | 1012.0 |
| 20260901163032 | 90 | 259 | 0.0 | 6.1 | 0.00 | 0.00 | 0.00 | 26 | 1012.1 |
| 20260901161532 | 91 | 284 | 1.7 | 6.1 | 0.00 | 0.00 | 0.00 | 25 | 1012.1 |
| 20260901160042 | 92 | 238 | 0.9 | 7.8 | 0.00 | 0.00 | 0.00 | 26 | 1012.1 |
| 20260901154533 | 92 | 273 | 1.7 | 9.6 | 0.00 | 0.00 | 0.00 | 26 | 1012.2 |
| 20260901153027 | 91 | 225 | 0.9 | 7.8 | 0.00 | 0.00 | 0.00 | 27 | 1012.2 |
| 20260901151528 | 91 | 334 | 1.7 | 7.0 | 0.00 | 0.00 | 0.00 | 26 | 1012.3 |
| 20260901150027 | 91 | 232 | 3.5 | 8.7 | 0.00 | 0.00 | 0.00 | 27 | 1012.5 |
| 20260901144523 | 91 | 264 | 3.5 | 10.4 | 0.00 | 0.00 | 0.00 | 26 | 1012.5 |
| 20260901143138 | 91 | 200 | 2.6 | 6.1 | 0.00 | 0.00 | 0.00 | 29 | 1012.5 |
| 20260901141518 | 90 | 259 | 0.0 | 4.3 | 0.00 | 0.00 | 0.00 | 29 | 1012.7 |
| 20260901140015 | 90 | 247 | 1.7 | 5.2 | 0.00 | 0.00 | 0.00 | 30 | 1012.9 |
| 20260901134519 | 89 | 255 | 1.7 | 7.8 | 0.00 | 0.00 | 0.00 | 32 | 1013.1 |
| 20260901133011 | 89 | 269 | 4.3 | 7.8 | 0.00 | 0.00 | 0.00 | 31 | 1013.2 |
| 20260901131513 | 88 | 224 | 0.9 | 4.3 | 0.00 | 0.00 | 0.00 | 34 | 1013.3 |
| 20260901130008 | 88 | 316 | 1.7 | 11.3 | 0.00 | 0.00 | 0.00 | 34 | 1013.5 |
| 20260901124513 | 87 | 328 | 1.7 | 7.0 | 0.00 | 0.00 | 0.00 | 36 | 1013.4 |
| 20260901123008 | 87 | 227 | 1.7 | 9.6 | 0.00 | 0.00 | 0.00 | 37 | 1013.6 |
| 20260901121601 | 86 | 154 | 0.9 | 4.3 | 0.00 | 0.00 | 0.00 | 39 | 1013.7 |
| 20260901114559 | 85 | 102 | 1.7 | 5.2 | 0.00 | 0.00 | 0.00 | 42 | 1014.0 |
| 20260901113059 | 84 | 122 | 0.9 | 3.5 | 0.00 | 0.00 | 0.00 | 44 | 1014.0 |
| 20260901111604 | 81 | 67 | 1.7 | 5.2 | 0.00 | 0.00 | 0.00 | 49 | 1014.3 |
| 20260901110049 | 82 | 81 | 0.9 | 3.5 | 0.00 | 0.00 | 0.00 | 47 | 1014.4 |
| 20260901104549 | 80 | 115 | 1.7 | 4.3 | 0.00 | 0.00 | 0.00 | 50 | 1014.5 |
| 20260901103044 | 80 | 104 | 1.7 | 7.8 | 0.00 | 0.00 | 0.00 | 52 | 1014.5 |
| 20260901101541 | 79 | 191 | 0.9 | 6.1 | 0.00 | 0.00 | 0.00 | 55 | 1014.7 |
| 20260901100046 | 77 | 82 | 3.5 | 6.1 | 0.00 | 0.00 | 0.00 | 57 | 1014.8 |
| 20260901094538 | 77 | 127 | 0.9 | 5.2 | 0.00 | 0.00 | 0.00 | 57 | 1014.8 |
| 20260901093036 | 76 | 155 | 0.9 | 6.1 | 0.00 | 0.00 | 0.00 | 59 | 1014.8 |
| 20260901091534 | 75 | 61 | 0.9 | 6.1 | 0.00 | 0.00 | 0.00 | 60 | 1014.9 |
| 20260901090034 | 75 | 95 | 0.9 | 3.5 | 0.00 | 0.00 | 0.00 | 59 | 1015.0 |
| 20260901084531 | 74 | 158 | 0.9 | 3.5 | 0.00 | 0.00 | 0.00 | 58 | 1015.0 |
| 20260901083031 | 74 | 147 | 0.9 | 3.5 | 0.00 | 0.00 | 0.00 | 60 | 1015.0 |
| 20260901081529 | 73 | 121 | 0.9 | 4.3 | 0.00 | 0.00 | 0.00 | 61 | 1015.0 |
| 20260901080028 | 73 | 146 | 0.0 | 2.6 | 0.00 | 0.00 | 0.00 | 58 | 1014.9 |
| 20260901074526 | 71 | 114 | 1.7 | 3.5 | 0.00 | 0.00 | 0.00 | 55 | 1014.9 |
| 20260901073028 | 71 | 115 | 0.9 | 2.6 | 0.00 | 0.00 | 0.00 | 55 | 1014.9 |
| 20260901071523 | 71 | 106 | 0.0 | 0.9 | 0.00 | 0.00 | 0.00 | 56 | 1014.9 |
| 20260901070022 | 68 | 98 | 0.0 | 0.9 | 0.00 | 0.00 | 0.00 | 58 | 1014.7 |
| 20260901064525 | 65 | 53 | 0.0 | 0.9 | 0.00 | 0.00 | 0.00 | 61 | 1014.7 |
| 20260901063030 | 65 | 158 | 0.0 | 0.0 | 0.00 | 0.00 | 0.00 | 61 | 1014.7 |
| 20260901061519 | 0 | 0.0 | 0.0 | 0.00 | 0.00 | 0.00 | 1014.7 | ||
| 20260901060011 | 0 | 0.0 | 0.0 | 0.00 | 0.00 | 0.00 | 1014.6 | ||
| 20260901054506 | 0 | 0.0 | 0.0 | 0.00 | 0.00 | 0.00 | 1014.5 | ||
| 20260901053001 | 0 | 0.0 | 0.0 | 0.00 | 0.00 | 0.00 | 1014.4 | ||
| 20260901051557 | 0 | 0.0 | 0.0 | 0.00 | 0.00 | 0.00 | 1014.2 | ||
| 20260901050054 | 66 | 214 | 0.0 | 0.9 | 0.00 | 0.00 | 0.00 | 60 | 1014.3 |
| 20260901044559 | 66 | 85 | 0.0 | 0.0 | 0.00 | 0.00 | 0.00 | 60 | 1014.0 |
| 20260901043049 | 66 | 85 | 0.0 | 0.0 | 0.00 | 0.00 | 0.00 | 57 | 1014.1 |
| 20260901041544 | 67 | 85 | 0.0 | 0.0 | 0.00 | 0.00 | 0.00 | 56 | 1013.9 |
| 20260901040047 | 68 | 84 | 0.0 | 1.7 | 0.00 | 0.00 | 0.00 | 54 | 1013.9 |
| 20260901034542 | 68 | 109 | 0.0 | 0.9 | 0.00 | 0.00 | 0.00 | 53 | 1013.9 |
| 20260901033041 | 68 | 109 | 0.0 | 0.9 | 0.00 | 0.00 | 0.00 | 53 | 1013.8 |
| 20260901031540 | 68 | 109 | 0.0 | 0.9 | 0.00 | 0.00 | 0.00 | 53 | 1013.7 |
| 20260901030040 | 68 | 109 | 0.0 | 0.9 | 0.00 | 0.00 | 0.00 | 53 | 1013.7 |
| 20260901024637 | 69 | 108 | 0.0 | 2.6 | 0.00 | 0.00 | 0.00 | 51 | 1013.6 |
| 20260901023041 | 69 | 98 | 0.0 | 1.7 | 0.00 | 0.00 | 0.00 | 50 | 1013.7 |
| 20260901021541 | 70 | 82 | 0.0 | 3.5 | 0.00 | 0.00 | 0.00 | 49 | 1013.8 |
| 20260901020041 | 70 | 96 | 0.0 | 2.6 | 0.00 | 0.00 | 0.00 | 48 | 1013.7 |
| 20260901014531 | 70 | 84 | 1.7 | 2.6 | 0.00 | 0.00 | 0.00 | 47 | 1013.7 |
| 20260901013031 | 70 | 109 | 0.0 | 1.7 | 0.00 | 0.00 | 0.00 | 46 | 1013.6 |
| 20260901011531 | 70 | 91 | 0.0 | 1.7 | 0.00 | 0.00 | 0.00 | 45 | 1013.8 |
| 20260901010030 | 70 | 52 | 0.0 | 0.9 | 0.00 | 0.00 | 0.00 | 44 | 1013.8 |
| 20260901004529 | 71 | 29 | 0.0 | 1.7 | 0.00 | 0.00 | 0.00 | 43 | 1013.9 |
| 20260901003029 | 72 | 130 | 0.0 | 7.0 | 0.00 | 0.00 | 0.00 | 42 | 1013.9 |
| 20260901001526 | 70 | 8 | 0.0 | 1.7 | 0.00 | 0.00 | 0.00 | 43 | 1013.8 |
| 20260901000024 | 70 | 141 | 0.0 | 0.9 | 0.00 | 0.00 | 0.00 | 44 | 1013.7 |
| 20260831234624 | 70 | 141 | 0.0 | 0.0 | 0.00 | 0.00 | 0.00 | 45 | 1013.6 |
| 20260831233020 | 69 | 141 | 0.0 | 0.0 | 0.00 | 0.00 | 0.00 | 42 | 1013.5 |
| 20260831231517 | 71 | 141 | 0.0 | 0.0 | 0.00 | 0.00 | 0.00 | 42 | 1013.5 |
| 20260831230022 | 71 | 141 | 0.0 | 0.0 | 0.00 | 0.00 | 0.00 | 42 | 1013.5 |
| 20260831224513 | 72 | 141 | 0.0 | 0.0 | 0.00 | 0.00 | 0.00 | 41 | 1013.3 |
| 20260831223010 | 73 | 159 | 0.0 | 0.0 | 0.00 | 0.00 | 0.00 | 42 | 1013.3 |
| 20260831221506 | 74 | 249 | 0.0 | 0.0 | 0.00 | 0.00 | 0.00 | 40 | 1013.2 |
| 20260831220007 | 74 | 249 | 0.0 | 0.0 | 0.00 | 0.00 | 0.00 | 38 | 1013.2 |
| 20260831214503 | 76 | 249 | 0.0 | 0.0 | 0.00 | 0.00 | 0.00 | 37 | 1013.2 |
| 20260831213004 | 77 | 293 | 0.0 | 0.9 | 0.00 | 0.00 | 0.00 | 36 | 1013.2 |
| 20260831211502 | 78 | 297 | 0.9 | 1.7 | 0.00 | 0.00 | 0.00 | 34 | 1013.1 |
| 20260831210001 | 78 | 302 | 0.0 | 1.7 | 0.00 | 0.00 | 0.00 | 35 | 1013.1 |
| 20260831204601 | 79 | 276 | 0.0 | 1.7 | 0.00 | 0.00 | 0.00 | 36 | 1013.0 |
| 20260831203111 | 79 | 12 | 0.0 | 2.6 | 0.00 | 0.00 | 0.00 | 36 | 1012.8 |
| 20260831201600 | 79 | 246 | 0.0 | 0.0 | 0.00 | 0.00 | 0.00 | 36 | 1012.7 |
| 20260831200059 | 80 | 233 | 0.0 | 0.0 | 0.00 | 0.00 | 0.00 | 35 | 1012.4 |
| 20260831194636 | 81 | 233 | 0.0 | 0.0 | 0.00 | 0.00 | 0.00 | 33 | 1012.2 |
| 20260831193100 | 81 | 233 | 0.0 | 0.0 | 0.00 | 0.00 | 0.00 | 32 | 1012.0 |
| 20260831191600 | 83 | 265 | 0.0 | 0.0 | 0.00 | 0.00 | 0.00 | 30 | 1011.9 |